Weather Roundup
Issued by NWS

Home | Current Version | Previous Version | Text Only | Print | Product List | Glossary On
Versions: 1 2 3 4 5 6 7 8 9 10 11 12 13 14 15 16 17 18 19 20 21 22 23 24 25 26 27 28 29 30 31 32 33 34 35 36 37 38 39 40 41 42 43 44 45 46 47 48 49 50
000
NZUS93 KARX 282310
HRRWXR

CURRENT HOURLY OBSERVATIONS ACROSS
MUCH OF THE UPPER MISSISSIPPI VALLEY
NATIONAL WEATHER SERVICE LA CROSSE WI
600 PM CDT FRI AUG 28 2015


...SOUTHEAST MINNESOTA...


CITY           SKY/WX    TMP DP  RH WIND       PRES   REMARKS
ROCHESTER      CLOUDY    59  57  93 E15       30.02F
ROCHESTER/MAYO CLOUDY    61  59  95 E7        30.03S
WINONA         CLOUDY    61  59  94 E7        30.05S
AUSTIN         CLOUDY    61  55  82 E15G21    29.99S
ALBERT LEA     CLOUDY    61  57  88 E14       29.98S
DODGE CENTER   PTSUNNY   61  55  82 E9        30.03R
PRESTON        CLOUDY    58  54  88 E12G20    30.03S
OWATONNA       PTSUNNY   64  57  77 E13       30.01S
FARIBAULT      SUNNY     66  57  72 SE15G21   30.02S
$$

...ELSEWHERE IN MINNESOTA...


CITY           SKY/WX    TMP DP  RH WIND       PRES   REMARKS
MINNEAPOLIS    PTSUNNY   70  59  68 SE14      29.99F
INTNL FALLS    PTSUNNY   76  70  82 SW7       29.85F
DULUTH         MOSUNNY   76  63  64 SW15      29.94S
RED WING       CLOUDY    64  57  77 SE10      30.02F
REDWOOD FALLS  MOSUNNY   70  59  68 SE9       29.98S
MANKATO        SUNNY     66  55  68 SE13      29.99F
WORTHINGTON    CLOUDY    63  55  77 E12       29.98S
FAIRMONT       CLOUDY    63  54  72 E12       29.98R
$$

...SOUTHWEST WISCONSIN...


CITY           SKY/WX    TMP DP  RH WIND       PRES   REMARKS
LA CROSSE      RAIN      60  58  92 SE8       30.06R FOG
PRAIRIE DU CHI RAIN      62  61  95 NE5       30.01R
BOSCOBEL       RAIN      63  61  93 E8        30.02F FOG
LONE ROCK      RAIN      63  62  97 E8        30.06S FOG
PLATTEVILLE    CLOUDY    64  63  97 SE9       30.04F
FORT MC COY    RAIN      59  57  94 S6        30.09R
CAMP DOUGLAS   RAIN      61  61 100 S7        30.07R FOG
VIROQUA        CLOUDY    58  58 100 NE7       30.07S
WIS DELLS      RAIN      62  59  90 E8        30.06F
$$

...ELSEWHERE IN WISCONSIN...


CITY           SKY/WX    TMP DP  RH WIND       PRES   REMARKS
MILWAUKEE      LGT RAIN  69  62  78 E7        30.07F
MADISON        LGT RAIN  65  62  90 SE6       30.08R FOG
GREEN BAY      CLOUDY    67  62  84 SW6       30.07F
EAU CLAIRE     PTSUNNY   67  59  75 S7        30.03R
BLACK RVR FLS  LGT RAIN  60  60 100 CALM      30.07R
MEDFORD        DRIZZLE   64  62  94 SW6       30.07R
WAUSAU         LGT RAIN  64  62  93 S10       30.04S
WIS RAPIDS     RAIN      64  61  90 CALM      30.08S FOG
MARSHFIELD     LGT RAIN  65  61  87 S7        30.06F
RICE LAKE      MOSUNNY   71  61  71 S12       30.03S
$$

...NORTHEAST IOWA...


CITY           SKY/WX    TMP DP  RH WIND       PRES   REMARKS
DECORAH        HVY RAIN  59  59 100 NE7       30.02R
MASON CITY     LGT RAIN  59  58  96 E13G22    29.95F FOG
CHARLES CITY   LGT RAIN  59  59 100 E14       29.97S
OELWEIN        CLOUDY    63  61  94 SE15G22   29.94S FOG
$$

...ELSEWHERE IN IOWA...


CITY           SKY/WX    TMP DP  RH WIND       PRES   REMARKS
DES MOINES     CLOUDY    75  66  73 S10       29.84S
IOWA CITY      CLOUDY    70  63  78 SE15      29.93F
FORT DODGE     CLOUDY    63  61  94 NE12      29.89S
$$

...NORTHERN ILLINOIS...


CITY           SKY/WX    TMP DP  RH WIND       PRES   REMARKS
CHICAGO-OHARE  CLOUDY    71  61  70 SE6       30.07S
CHICAGO-MIDWAY CLOUDY    75  60  59 SE7       30.07S
MOLINE         CLOUDY    72  64  76 SE10      29.97
ROCKFORD       CLOUDY    68  62  81 E7        30.08S
PEORIA         CLOUDY    77  59  53 S7        30.02S
$$

NOTE: "FAIR" INDICATES FEW OR NO CLOUDS BELOW 12,000 FEET WITH NO
SIGNIFICANT WEATHER AND/OR OBSTRUCTIONS TO VISIBILITY. WIND
SPEEDS ARE IN MILES-PER-HOUR.



USA.gov is the U.S. government's official web portal to all federal, state and local government web resources and services.